Regional Weather Roundup
Issued by NWS Jackson, KY

Home | Current Version | Previous Version | Text Only | Print | Product List | Glossary On
Versions: 1 2 3 4 5 6 7 8 9 10 11 12 13 14 15 16 17 18 19 20 21 22 23 24 25 26 27
000
ASUS43 KJKL 201010
RWRJKL

EAST KENTUCKY HOURLY WEATHER ROUNDUP
NATIONAL WEATHER SERVICE JACKSON KY
600 AM EDT FRI OCT 20 2017

NOTE: "FAIR" INDICATES FEW OR NO CLOUDS BELOW 12,000 FEET WITH
NO SIGNIFICANT WEATHER AND/OR OBSTRUCTIONS TO VISIBILITY.

* THESE REPORTS ARE NOT UNDER NWS QUALITY CONTROL AND MAY NOT
  REPORT WEATHER SUCH AS PRECIPITATION AND FOG.

KYZ079-080-083-085-087-088-110-112-115-119-120-201100
...EASTERN KENTUCKY...

CITY           SKY/WX    TMP DP  RH WIND       PRES   REMARKS
JACKSON          N/A     50  46  86 CALM      30.29R
LONDON           N/A     43  41  93 CALM      30.30R
SOMERSET*        N/A     43  43 100 CALM      30.31R
MONTICELLO*      N/A     40  40 100 W8        30.31S WCI  34
WILLIAMSBURG*    N/A     41  41 100 CALM      30.30R VSB 1/2
MIDDLESBORO*   FOG       43  43 100 CALM      30.33R VSB 1/4
HARLAN APT*    CLOUDY    45  43  93 CALM      30.32R VSB 1/4
PIKE CO APT*     N/A     49  48  93 S5        30.30R
BIG SANDY APT*   N/A     50  48  92 S3        30.29S
MOREHEAD APT*    N/A     50  48  93 CALM      30.30R FOG
$$

KYZ035-036-041-042-044-050-067-078-099-201100
...CENTRAL KENTUCKY...

CITY           SKY/WX    TMP DP  RH WIND       PRES   REMARKS
MT STERLING*     N/A     45  45 100 SW5       30.30R
FLEMING/MASON*   N/A     49  47  95 S5        30.29R
DANVILLE*        N/A     45  45 100 CALM      30.30R
LEXINGTON        N/A     47  43  86 S3        30.28R
FRANKFORT        N/A     46  43  89 CALM      30.27R
LOUISVILLE       N/A     52  50  93 SE3       30.26R
LEBANON*         N/A     50  46  87 CALM      30.28R
GLASGOW*         N/A    N/A N/A N/A CALM      30.28R HAZE
BOWLING GREEN    N/A     46  46 100 CALM      30.27S
$$

KYZ091>093-OHZ055-061-077-WVZ005-015-034-035-042-201100
...SOUTHERN OHIO/WEST VIRGINIA...

CITY           SKY/WX    TMP DP  RH WIND       PRES   REMARKS
COVINGTON        N/A     46  46 100 S3        30.26R
COLUMBUS         N/A     49  48  97 NW3       30.25R
DAYTON           N/A     50  49  96 S3        30.27R
WILMINGTON       N/A     48  48 100 CALM      30.27R FOG
HUNTINGTON       N/A     47  45  93 S3        30.27R
CHARLESTON       N/A     46  43  89 CALM      30.28R
PINEVILLE*       N/A     40  39  96 MISG      30.36R
BECKLEY          N/A     45  40  82 CALM      30.30S
BLUEFIELD        N/A     47  39  74 W6        30.32R
LOGAN CO APT*    N/A     46  46 100 CALM      30.29S
$$

VAZ002-007-008-TNZ017-027-036-066-071-201100
...SOUTHWEST VIRGINIA/EAST TENNESSEE...

CITY           SKY/WX    TMP DP  RH WIND       PRES   REMARKS
WISE*            N/A     52  41  66 CALM      30.33R
JONESVILLE*      N/A     39  39 100 CALM      30.33R
ABINGDON*        N/A     45  42  89 CALM      30.31S
BRISTOL          N/A     41  41 100 CALM      30.31R
MORRISTOWN*    SUNNY     46  45  93 CALM      30.29R
SEVIERVILLE*   SUNNY     41  41 100 CALM      30.30R
KNOXVILLE        N/A     45  45 100 CALM      30.28R
LAFOLLETTE*    SUNNY     41  41 100 CALM      30.34R
OAK RIDGE      LGT RAIN  47  47 100 CALM      30.31R VSB 1/4
CROSSVILLE       N/A     43  41  93 CALM      30.31R
NASHVILLE        N/A     47  44  90 CALM      30.28R
$$

...KEY TO REMARKS...
VSB - VISIBILITY IN MILES
WCI - WIND CHILL INDEX
HX  - HEAT INDEX

$$




USA.gov is the U.S. government's official web portal to all federal, state and local government web resources and services.